Terminal Aerodrome Forecast
Issued by NWS Birmingham, AL

Home | Current Version | Previous Version | Text Only | Print | Product List | Glossary On
Versions: 1 2 3 4 5 6 7 8 9 10 11 12 13 14
000
FTUS44 KBMX 202300 CCA
TAFBHM
TAF COR
KBHM 202342Z 2100/2124 VRB03KT P6SM BKN070
     FM210600 VRB03KT P6SM BKN025
     FM211600 11006KT P6SM BKN150=

USA.gov is the U.S. government's official web portal to all federal, state and local government web resources and services.